Location: Baumgarten
(49.0970°N, 12.7493°E)
Time: 17:49:45
(UTC+00:00)

Cosmos 1515 Rocket - Pass Details

Date: 05 July 2020
Orbit: 607 x 629 km, 82.5° (Epoch: 13 August)

Event Time Altitude Azimuth Distance (km) Brightness Sun altitude
Rises 22:34:58 0° 354° (N) 2,880 8.7 -17.7°
Reaches altitude 10° 22:37:15 10° 0° (N) 1,973 7.4 -17.8°
Maximum altitude 22:41:29 49° 76° (ENE) 796 4.1 -17.9°
Enters shadow 22:43:17 30° 133° (SE) 1,103 4.4 -17.9°
